Location: Emory University Observatory
(33.7903°N, 84.3267°W)
Time: 07:07:36
(UTC-05:00)

Vanguard 2 Rocket - Visible Passes

Search period start: 17 December 2017 00:00
Search period end: 27 December 2017 00:00
Orbit: 556 x 3326 km, 32.9° (Epoch: 16 December)

Date Brightness Start Highest point End Pass type
(mag) Time Alt. Az. Time Alt. Az. Time Alt. Az.
17 Dec 10.8 02:14:23 12° SSE 02:14:23 12° SSE 02:15:21 10° SSE visible
17 Dec 10.7 04:20:11 10° SSW 04:20:11 10° SSW 04:20:25 10° SSW visible
17 Dec 8.7 17:56:59 10° SW 18:05:19 56° SSE 18:19:54 10° ENE visible
17 Dec 8.8 20:09:20 10° W 20:20:59 86° S 20:25:42 58° E visible
17 Dec 9.7 22:23:35 10° W 22:31:30 44° W 22:31:30 44° W visible
18 Dec11.101:18:05SE01:18:05SE00:37:18WNWvisible
18 Dec 10.7 03:23:53 13° S 03:23:53 13° S 03:25:31 10° S visible
18 Dec 8.7 19:10:08 10° WSW 19:20:00 80° SSE 19:29:28 31° E visible
18 Dec 9.1 21:23:38 10° W 21:35:17 76° WSW 21:35:17 76° WSW visible
18 Dec 10.6 23:38:40 10° W 23:41:05 18° W 23:41:05 18° W visible
19 Dec 10.9 02:27:33 10° SSE 02:27:33 10° SSE 02:27:45 10° SSE visible
19 Dec 8.5 18:11:16 10° WSW 18:19:35 70° SSE 18:33:16 13° E visible
19 Dec 8.8 20:24:03 10° W 20:35:42 87° S 20:39:04 66° E visible
19 Dec 9.9 22:38:17 10° W 22:44:53 37° W 22:44:53 37° W visible
20 Dec11.101:31:08SSE01:31:08SSE00:50:41WNWvisible
20 Dec 8.6 19:24:47 10° W 19:34:39 86° S 19:42:53 36° E visible
20 Dec 9.2 21:38:20 10° W 21:48:42 65° WSW 21:48:42 65° WSW visible
20 Dec 10.7 23:53:31 10° W 23:54:30 13° W 23:54:30 13° W visible
21 Dec 8.4 18:25:48 10° WSW 18:34:07 80° SSE 18:46:44 16° E visible
21 Dec 8.8 20:38:45 10° W 20:50:24 84° S 20:52:32 73° ESE visible
21 Dec 10.1 22:53:02 10° W 22:58:21 30° W 22:58:21 30° W visible
22 Dec 8.6 19:39:29 10° W 19:49:21 87° S 19:56:26 41° E visible
22 Dec 9.3 21:53:03 10° W 22:02:15 55° WSW 22:02:15 55° WSW visible
23 Dec 8.3 18:40:28 10° W 18:48:46 86° S 19:00:22 19° E visible
23 Dec 8.8 20:53:28 10° W 21:05:02 77° SSW 21:06:12 74° SSE visible
23 Dec 10.3 23:07:57 10° W 23:12:01 24° W 23:12:01 24° W visible
24 Dec 8.1 17:41:39 10° WSW 17:48:38 80° S 18:01:33 10° E visible
24 Dec 8.6 19:54:12 10° W 20:04:03 83° S 20:10:12 45° ESE visible
24 Dec 9.5 22:07:50 10° W 22:16:02 45° WSW 22:16:02 45° WSW visible
25 Dec 8.3 18:55:10 10° W 19:03:29 86° S 19:14:17 21° E visible
25 Dec 9.0 21:08:11 10° W 21:19:36 66° SSW 21:20:07 66° S visible
25 Dec 10.5 23:23:13 10° W 23:25:57 18° W 23:25:57 18° W visible
26 Dec 8.0 17:56:20 10° W 18:03:18 86° S 18:16:15 10° E visible
26 Dec 8.6 20:08:54 10° W 20:18:42 74° SSW 20:24:17 46° SE visible
26 Dec 9.8 22:22:49 10° W 22:30:08 36° WSW 22:30:08 36° WSW visible
